{"data":{"norad_id":65175,"epoch":"2026-05-25T02:26:09.496320Z","epoch_age_seconds":62901,"freshness":"FRESH","line1":"1 65175U 25175B   26145.10149880  .00003369  00000+0  23742-3 0  9994","line2":"2 65175  97.4522  17.5268 0003041  79.2454 280.9115 15.05657852 44146","mean_motion":15.05657852,"eccentricity":0.0003041,"inclination_deg":97.4522,"raan_deg":17.5268,"arg_perigee_deg":79.2454,"mean_anomaly_deg":280.9115,"bstar":0.00023742,"rev_number":4414,"period_min":95.639258154647,"perigee_km":547.38037843288,"apogee_km":551.5937593916,"semimajor_km":6927.6240689122,"source":"CELESTRAK","updated_at":"2026-05-25T13:38:20.688830Z"}}